| time (UTC) | temp F | wind direction | speed MPH | gust MPH | rain 1hr in | rain 24hr in | rain mn in | humidity % | barometer mb |
| 20260506050153 | 48 | 292 | 3.0 | 6.0 | 0.00 | 0.00 | 0.00 | 84 | 1010.5 |
| 20260506044653 | 48 | 292 | 3.0 | 6.0 | 0.00 | 0.00 | 0.00 | 84 | 1010.9 |
| 20260506043152 | 48 | 315 | 4.0 | 6.0 | 0.00 | 0.00 | 0.00 | 84 | 1010.9 |
| 20260506041653 | 48 | 315 | 3.0 | 6.0 | 0.00 | 0.00 | 0.00 | 84 | 1010.9 |
| 20260506040152 | 48 | 315 | 2.0 | 6.0 | 0.00 | 0.00 | 0.00 | 83 | 1010.9 |
| 20260506034652 | 48 | 315 | 3.0 | 6.0 | 0.00 | 0.00 | 0.00 | 83 | 1011.2 |
| 20260506033153 | 49 | 315 | 3.0 | 6.0 | 0.00 | 0.00 | 0.00 | 83 | 1011.0 |
| 20260506031652 | 49 | 315 | 3.0 | 6.0 | 0.00 | 0.00 | 0.00 | 83 | 1011.0 |
| 20260506030152 | 49 | 292 | 3.0 | 6.0 | 0.00 | 0.00 | 0.00 | 83 | 1011.0 |
| 20260506024652 | 49 | 292 | 4.0 | 6.0 | 0.00 | 0.00 | 0.00 | 83 | 1011.1 |
| 20260506023151 | 49 | 292 | 3.0 | 8.0 | 0.00 | 0.00 | 0.00 | 83 | 1011.2 |
| 20260506021651 | 49 | 315 | 3.0 | 6.0 | 0.00 | 0.00 | 0.00 | 83 | 1011.3 |
| 20260506020151 | 49 | 315 | 4.0 | 6.0 | 0.00 | 0.00 | 0.00 | 83 | 1011.2 |
| 20260506014652 | 49 | 315 | 3.0 | 9.0 | 0.00 | 0.00 | 0.00 | 83 | 1011.6 |
| 20260506013152 | 49 | 315 | 3.0 | 9.0 | 0.00 | 0.00 | 0.00 | 82 | 1011.7 |
| 20260506011651 | 49 | 292 | 4.0 | 9.0 | 0.00 | 0.00 | 0.00 | 81 | 1011.8 |
| 20260506010151 | 50 | 315 | 4.0 | 10.0 | 0.00 | 0.00 | 0.00 | 81 | 1012.0 |
| 20260506004652 | 50 | 315 | 5.0 | 9.0 | 0.00 | 0.00 | 0.00 | 80 | 1012.3 |
| 20260506003152 | 50 | 315 | 5.0 | 10.0 | 0.00 | 0.00 | 0.00 | 80 | 1012.3 |
| 20260506001652 | 50 | 292 | 6.0 | 12.0 | 0.00 | 0.00 | 0.00 | 79 | 1012.6 |
| 20260506000151 | 50 | 292 | 6.0 | 12.0 | 0.00 | 0.00 | 0.00 | 78 | 1012.8 |
| 20260505234651 | 50 | 315 | 6.0 | 12.0 | 0.00 | 0.00 | 0.00 | 78 | 1012.7 |
| 20260505233152 | 51 | 338 | 6.0 | 11.0 | 0.00 | 0.00 | 0.00 | 77 | 1012.9 |
| 20260505231651 | 51 | 292 | 6.0 | 11.0 | 0.00 | 0.00 | 0.00 | 77 | 1012.8 |
| 20260505230151 | 51 | 315 | 7.0 | 11.0 | 0.00 | 0.00 | 0.00 | 77 | 1013.2 |
| 20260505224651 | 52 | 315 | 6.0 | 15.0 | 0.00 | 0.00 | 0.00 | 76 | 1013.1 |
| 20260505223150 | 52 | 338 | 8.0 | 15.0 | 0.00 | 0.00 | 0.00 | 75 | 1013.1 |
| 20260505221650 | 52 | 315 | 9.0 | 15.0 | 0.00 | 0.00 | 0.00 | 75 | 1013.3 |
| 20260505220151 | 53 | 315 | 9.0 | 15.0 | 0.00 | 0.00 | 0.00 | 75 | 1013.1 |
| 20260505214650 | 53 | 292 | 9.0 | 13.0 | 0.00 | 0.00 | 0.00 | 74 | 1013.0 |
| 20260505213151 | 53 | 292 | 8.0 | 15.0 | 0.00 | 0.00 | 0.00 | 74 | 1013.5 |
| 20260505211650 | 54 | 292 | 9.0 | 13.0 | 0.00 | 0.00 | 0.00 | 72 | 1013.2 |
| 20260505210151 | 55 | 338 | 9.0 | 15.0 | 0.00 | 0.00 | 0.00 | 70 | 1013.2 |
| 20260505204649 | 56 | 248 | 7.0 | 15.0 | 0.00 | 0.00 | 0.00 | 69 | 1013.1 |
| 20260505203151 | 56 | 292 | 9.0 | 15.0 | 0.00 | 0.00 | 0.00 | 68 | 1012.8 |
| 20260505201650 | 57 | 292 | 6.0 | 13.0 | 0.00 | 0.00 | 0.00 | 67 | 1012.6 |
| 20260505200151 | 57 | 292 | 6.0 | 11.0 | 0.00 | 0.00 | 0.00 | 63 | 1012.6 |
| 20260505194649 | 58 | 315 | 6.0 | 9.0 | 0.00 | 0.00 | 0.00 | 58 | 1012.4 |
| 20260505193151 | 59 | 292 | 5.0 | 9.0 | 0.00 | 0.00 | 0.00 | 56 | 1012.0 |
| 20260505191651 | 60 | 270 | 4.0 | 10.0 | 0.00 | 0.00 | 0.00 | 54 | 1011.9 |
| 20260505190149 | 60 | 292 | 5.0 | 10.0 | 0.00 | 0.00 | 0.00 | 53 | 1011.8 |
| 20260505184649 | 62 | 292 | 6.0 | 12.0 | 0.00 | 0.00 | 0.00 | 52 | 1011.9 |
| 20260505183151 | 63 | 315 | 3.0 | 8.0 | 0.00 | 0.00 | 0.00 | 48 | 1012.0 |
| 20260505181649 | 62 | 315 | 7.0 | 15.0 | 0.00 | 0.00 | 0.00 | 47 | 1011.7 |
| 20260505180149 | 63 | 292 | 9.0 | 13.0 | 0.00 | 0.00 | 0.00 | 45 | 1011.6 |
| 20260505174650 | 64 | 292 | 7.0 | 10.0 | 0.00 | 0.00 | 0.00 | 46 | 1011.9 |
| 20260505173149 | 65 | 315 | 2.0 | 10.0 | 0.00 | 0.00 | 0.00 | 46 | 1011.8 |
| 20260505171650 | 63 | 315 | 7.0 | 15.0 | 0.00 | 0.00 | 0.00 | 45 | 1012.1 |
| 20260505170150 | 64 | 315 | 7.0 | 15.0 | 0.00 | 0.00 | 0.00 | 45 | 1012.1 |
| 20260505164649 | 64 | 315 | 10.0 | 17.0 | 0.00 | 0.00 | 0.00 | 44 | 1012.0 |
| 20260505163149 | 65 | 292 | 10.0 | 13.0 | 0.00 | 0.00 | 0.00 | 41 | 1012.0 |
| 20260505161649 | 64 | 315 | 6.0 | 12.0 | 0.00 | 0.00 | 0.00 | 42 | 1012.0 |
| 20260505160149 | 63 | 292 | 8.0 | 12.0 | 0.00 | 0.00 | 0.00 | 44 | 1012.2 |
| 20260505153149 | 64 | 315 | 7.0 | 10.0 | 0.00 | 0.00 | 0.00 | 44 | 1012.3 |
| 20260505151649 | 63 | 292 | 4.0 | 6.0 | 0.00 | 0.00 | 0.00 | 45 | 1012.4 |
| 20260505150148 | 65 | 360 | 6.0 | 10.0 | 0.00 | 0.00 | 0.00 | 44 | 1012.5 |
| 20260505140149 | 63 | 270 | 7.0 | 17.0 | 0.00 | 0.00 | 0.00 | 46 | 1012.9 |
| 20260505130149 | 62 | 315 | 4.0 | 13.0 | 0.00 | 0.00 | 0.00 | 49 | 1013.1 |
| 20260505124649 | 61 | 292 | 5.0 | 12.0 | 0.00 | 0.00 | 0.00 | 49 | 1013.0 |
| 20260505123147 | 61 | 292 | 1.0 | 10.0 | 0.00 | 0.00 | 0.00 | 50 | 1013.3 |
| 20260505121648 | 61 | 292 | 2.0 | 9.0 | 0.00 | 0.00 | 0.00 | 51 | 1013.3 |
| 20260505120148 | 64 | 292 | 0.0 | 12.0 | 0.00 | 0.00 | 0.00 | 46 | 1013.7 |
| 20260505114649 | 60 | 22 | 5.0 | 6.0 | 0.00 | 0.00 | 0.00 | 52 | 1013.7 |
| 20260505113148 | 59 | 270 | 3.0 | 6.0 | 0.00 | 0.00 | 0.00 | 51 | 1014.0 |
| 20260505111648 | 59 | 292 | 6.0 | 6.0 | 0.00 | 0.00 | 0.00 | 53 | 1013.9 |
| 20260505110149 | 61 | 112 | 2.0 | 9.0 | 0.00 | 0.00 | 0.00 | 51 | 1013.8 |
| 20260505101648 | 60 | 90 | 2.0 | 11.0 | 0.00 | 0.00 | 0.00 | 54 | 1014.1 |
| 20260505100147 | 57 | 292 | 3.0 | 11.0 | 0.00 | 0.00 | 0.00 | 60 | 1014.2 |
| 20260505094648 | 56 | 292 | 4.0 | 10.0 | 0.00 | 0.00 | 0.00 | 62 | 1014.0 |
| 20260505093148 | 55 | 270 | 6.0 | 8.0 | 0.00 | 0.00 | 0.00 | 63 | 1014.0 |
| 20260505091647 | 54 | 338 | 6.0 | 10.0 | 0.00 | 0.00 | 0.00 | 65 | 1014.2 |
| 20260505090147 | 54 | 338 | 2.0 | 9.0 | 0.00 | 0.00 | 0.00 | 67 | 1014.1 |
| 20260505084647 | 53 | 315 | 4.0 | 10.0 | 0.00 | 0.00 | 0.00 | 67 | 1014.1 |
| 20260505083147 | 53 | 315 | 6.0 | 10.0 | 0.00 | 0.00 | 0.00 | 68 | 1013.9 |
| 20260505081647 | 52 | 292 | 6.0 | 9.0 | 0.00 | 0.00 | 0.00 | 71 | 1013.8 |
| 20260505080146 | 51 | 315 | 6.0 | 10.0 | 0.00 | 0.00 | 0.00 | 72 | 1013.9 |
| 20260505074647 | 51 | 315 | 4.0 | 9.0 | 0.00 | 0.00 | 0.00 | 72 | 1013.9 |
| 20260505073147 | 50 | 338 | 4.0 | 8.0 | 0.00 | 0.00 | 0.00 | 75 | 1013.7 |
| 20260505071646 | 50 | 292 | 3.0 | 8.0 | 0.00 | 0.00 | 0.00 | 78 | 1013.5 |
| 20260505070146 | 48 | 338 | 3.0 | 6.0 | 0.00 | 0.00 | 0.00 | 81 | 1013.6 |
| 20260505064647 | 48 | 315 | 3.0 | 8.0 | 0.00 | 0.00 | 0.00 | 83 | 1013.4 |
| 20260505063146 | 47 | 292 | 3.0 | 6.0 | 0.00 | 0.00 | 0.00 | 83 | 1013.2 |
| 20260505061647 | 46 | 315 | 3.0 | 6.0 | 0.00 | 0.00 | 0.00 | 84 | 1013.1 |
| 20260505060146 | 46 | 292 | 4.0 | 9.0 | 0.00 | 0.00 | 0.00 | 85 | 1013.3 |
| 20260505054647 | 45 | 270 | 6.0 | 9.0 | 0.00 | 0.00 | 0.00 | 85 | 1013.1 |